Theta_e
345 346 346 345 345 344 347 349 349 350 349 348 347 347 346 346 345 344 343 343 341 338 335 337 339 339 341 343 345 342 342 343 343 343 343 343 343 342 342 343 343 344 344 345 345 345 344 343 344 345 345 344 343 340 341 341 341 342 342 343 343 342
345 346 346 346 346 343 345 347 344 346 345 345 346 346 344 340 345 339 341 340 336 339 333 331 334 342 341 341 340 342 343 343 343 343 343 343 343 342 343 343 343 344 344 344 344 337 337 343 345 345 343 342 339 339 340 340 340 340 341 342 343 343
345 346 346 345 345 343 344 343 342 342 343 345 346 345 339 342 334 336 336 334 336 335 331 333 335 340 341 342 342 342 342 343 343 343 343 343 343 342 343 344 344 344 344 345 339 336 334 337 343 344 341 338 337 338 338 338 339 339 340 341 342 343
344 345 344 344 344 342 340 341 340 340 340 339 339 338 335 335 332 331 331 330 331 333 332 330 342 342 343 339 338 343 343 344 344 342 343 343 343 342 343 342 341 342 340 339 338 338 334 337 336 336 336 336 336 336 336 336 337 337 339 341 341 342
343 344 343 344 343 342 340 341 340 339 339 336 334 331 332 331 330 329 328 331 329 333 330 329 333 334 334 334 332 331 333 334 334 331 342 330 328 329 331 331 333 336 334 339 338 336 336 336 336 335 335 335 335 335 335 335 335 336 337 338 340 341
343 343 343 343 343 342 342 340 339 339 338 336 335 332 330 330 329 329 328 331 334 331 329 329 329 330 331 334 334 331 331 328 327 329 335 330 328 328 329 333 335 337 338 338 337 335 337 336 335 335 334 334 333 332 332 332 333 334 335 337 337 339
342 342 342 343 343 343 341 341 340 339 337 335 335 333 331 331 330 328 328 334 332 330 330 328 328 328 330 332 332 330 330 329 330 330 333 333 331 332 333 335 336 337 335 337 337 337 337 336 335 333 333 332 332 331 330 330 329 329 329 332 334 335
341 342 341 342 342 342 340 340 339 340 338 337 335 334 332 331 332 330 330 333 336 331 333 330 328 328 330 330 332 331 330 329 331 332 334 335 334 334 335 336 336 336 336 337 338 336 336 334 333 333 331 330 330 329 328 326 325 324 325 327 330 331
341 341 341 341 340 341 340 339 339 338 335 338 334 334 333 332 332 333 332 333 337 331 333 333 330 330 332 332 332 332 332 332 333 333 334 335 336 334 334 334 334 334 334 334 336 335 335 333 332 331 330 329 327 326 324 323 322 321 321 324 326 328
340 340 341 341 340 340 340 338 337 337 335 337 333 332 332 329 330 331 331 333 336 333 334 336 335 332 332 332 333 334 334 334 334 334 335 335 335 334 332 333 333 333 335 334 335 336 334 332 330 329 328 326 325 324 323 321 320 320 320 321 324 326
340 341 341 339 340 339 339 338 337 336 335 333 331 331 330 327 329 330 331 333 335 337 335 335 335 333 332 333 334 335 335 335 334 335 335 334 334 335 334 333 331 333 332 334 335 336 333 330 328 326 326 324 323 323 322 321 320 319 318 319 320 323
340 340 340 340 340 338 338 337 337 335 333 331 330 328 327 327 331 331 333 332 334 336 338 334 334 333 333 333 334 335 336 335 334 334 334 333 335 336 335 334 335 330 329 333 334 334 333 329 326 323 323 322 322 321 320 320 319 319 319 318 318 320
340 340 339 339 339 338 338 337 335 333 332 331 329 327 326 327 329 331 333 333 334 336 338 335 334 334 336 333 334 333 333 334 333 334 335 335 336 334 332 332 329 327 328 330 332 333 331 327 323 322 322 321 321 320 320 319 319 319 318 317 317 317
340 339 338 338 338 337 336 336 335 333 333 330 328 326 327 326 330 331 333 333 334 336 337 336 335 334 335 333 333 333 333 334 334 335 336 336 334 330 331 329 327 328 330 329 330 330 326 323 322 322 321 321 321 320 319 319 318 318 317 316 316 316
340 338 339 337 337 336 336 335 334 332 331 329 327 326 326 326 329 331 333 333 335 336 337 335 335 334 334 333 332 332 332 334 333 334 334 334 333 331 330 327 325 323 323 325 327 328 324 322 321 320 321 321 320 319 319 318 318 316 315 314 315 314
339 338 338 337 337 336 335 334 333 334 330 328 327 325 325 327 329 332 334 333 334 336 337 335 335 334 333 332 332 332 331 332 332 333 332 332 332 330 328 326 325 324 322 322 324 323 323 320 320 319 319 319 319 318 316 316 315 313 312 313 313 313
337 337 338 337 337 335 334 333 332 333 330 329 326 325 326 328 331 332 333 333 334 336 335 334 334 334 333 332 332 331 330 331 332 331 331 330 330 329 326 324 324 326 323 321 321 320 318 319 318 318 318 317 317 316 314 314 312 311 312 311 310 311
338 338 338 337 336 335 334 333 332 331 332 329 327 327 327 330 331 332 333 333 334 336 335 334 334 334 333 333 332 331 331 332 333 331 331 329 330 328 326 324 321 321 321 321 319 318 316 316 316 315 314 313 312 312 311 311 314 314 310 309 310 311
338 338 337 337 336 334 333 332 330 329 329 328 328 328 329 331 332 332 333 334 334 336 337 334 334 334 333 336 333 332 331 333 333 330 330 330 329 326 324 323 320 318 319 318 318 317 315 314 313 312 310 311 311 309 309 312 313 308 308 308 309 310
337 338 337 337 335 332 330 330 328 326 326 328 327 329 330 331 332 332 334 334 335 335 335 334 334 333 334 335 333 331 331 333 333 330 329 329 327 325 322 320 319 317 315 315 314 314 314 312 310 310 312 309 310 310 309 311 306 306 309 308 310 309
336 337 336 335 333 331 329 327 327 327 327 327 328 329 331 331 332 333 334 334 335 334 334 334 334 333 333 336 333 331 331 332 332 330 330 330 328 325 323 321 319 318 314 312 312 313 312 311 308 306 306 307 308 311 313 309 306 306 306 308 308 307
336 336 336 335 333 332 331 330 328 327 326 327 328 329 330 331 332 333 333 334 334 334 334 334 335 334 334 334 331 330 330 330 331 329 330 329 327 328 323 320 318 316 317 314 311 311 310 310 307 305 303 303 307 307 311 306 306 305 306 306 306 306
335 335 335 334 333 332 331 330 329 327 329 326 327 331 331 332 333 333 333 333 334 333 333 334 335 335 333 332 331 330 330 329 329 330 329 327 326 324 321 319 318 315 314 316 314 313 311 313 308 307 306 304 300 300 305 305 304 305 306 306 306 305
335 335 335 334 334 333 332 329 329 329 329 330 329 330 331 332 333 332 332 332 332 333 333 334 335 335 333 332 331 330 329 329 329 330 329 327 324 322 321 320 319 317 315 311 311 311 315 313 308 307 304 305 301 301 297 300 301 303 303 304 306 306
334 334 334 334 333 331 331 328 328 328 330 329 330 331 331 331 333 333 333 332 332 333 333 333 334 334 333 331 330 329 329 328 328 329 329 327 324 322 321 320 319 317 316 313 310 311 313 315 310 315 309 302 300 299 300 300 300 304 302 301 301 304
334 334 334 333 332 331 330 328 327 327 326 327 327 328 327 329 330 331 331 333 333 333 332 332 333 333 333 331 329 329 329 328 328 328 328 327 325 323 321 320 319 318 317 316 313 311 310 316 313 317 310 310 308 305 301 301 301 298 303 304 305 303
333 333 334 333 331 332 329 329 328 328 328 327 327 329 330 332 332 333 333 331 332 332 332 331 331 332 331 331 328 328 328 328 328 327 328 326 324 323 321 321 320 318 318 318 315 311 311 312 313 313 315 313 314 309 304 301 299 297 297 303 300 300
333 334 333 333 331 332 330 329 328 328 328 328 328 328 329 331 333 332 331 330 330 330 331 331 330 330 330 330 328 327 327 327 327 326 327 325 325 324 323 322 321 320 319 318 316 314 312 314 310 310 314 312 309 305 305 303 302 302 298 296 297 298
333 333 333 333 332 331 331 330 329 328 328 329 329 329 330 331 331 330 329 327 328 328 328 328 329 328 328 328 329 326 325 325 325 325 328 324 323 322 323 322 321 318 317 317 316 316 314 314 311 310 310 306 305 304 303 304 303 301 301 296 294 296
332 333 333 332 332 331 331 331 329 328 328 327 329 328 329 329 329 328 328 326 326 325 326 325 325 326 326 327 327 326 324 324 324 324 325 322 320 320 320 321 321 319 318 317 316 316 315 315 313 312 313 309 306 304 304 303 302 299 298 299 297 295
332 333 333 332 332 331 331 331 330 329 328 328 328 328 328 328 328 327 326 324 324 324 324 324 323 323 324 324 324 325 323 322 322 325 322 320 319 319 318 319 320 319 318 317 315 316 316 315 314 312 311 310 310 306 305 303 300 301 300 298 297 297
331 332 333 333 332 331 331 330 330 330 329 329 329 329 329 327 327 326 326 324 323 322 322 322 321 321 321 321 323 322 322 320 321 320 318 318 318 317 315 315 316 318 317 317 316 316 314 312 312 310 308 309 310 309 307 307 302 303 301 300 301 297
331 332 332 333 331 331 331 330 330 330 330 330 330 329 329 329 328 326 325 324 322 322 321 320 320 320 319 318 320 319 318 318 317 317 316 315 314 313 313 313 314 315 315 314 314 314 312 312 311 310 309 306 308 307 308 306 304 303 302 301 300 296
331 332 332 332 332 331 331 330 330 330 330 330 330 330 329 329 328 327 326 325 324 323 321 322 320 321 319 317 319 319 319 317 316 315 314 313 312 312 311 311 312 312 311 312 311 312 312 311 309 309 307 305 305 306 307 304 305 303 301 300 298 299
330 331 332 332 332 331 331 331 330 330 330 330 330 330 330 329 328 327 326 326 325 324 323 322 321 321 318 317 316 316 316 315 313 313 313 313 312 311 311 311 310 309 308 306 308 308 307 306 306 304 304 306 305 303 303 303 303 304 303 303 301 299
331 331 332 332 332 332 331 331 330 329 330 330 330 330 329 329 329 329 327 326 325 324 323 321 320 319 316 316 314 314 315 313 312 312 312 312 311 310 309 308 307 307 306 307 305 305 304 304 304 303 303 302 303 301 301 301 302 303 303 303 302 301
330 331 332 332 332 332 331 330 329 330 329 329 329 329 329 328 328 328 327 327 325 323 321 320 319 318 315 314 313 313 313 311 311 311 311 311 310 309 308 309 306 305 305 305 305 304 303 303 302 302 301 302 302 301 300 302 301 301 301 301 301 302
Wind_Speed
7 7 7 6 5 5 8 13 12 13 13 13 12 12 11 10 8 7 6 6 6 3 3 2 4 1 7 4 5 6 5 4 3 3 2 3 3 3 3 4 5 5 5 6 7 8 7 8 12 12 13 13 12 7 7 7 7 7 7 6 6 7
7 9 8 6 5 5 5 10 5 6 6 8 9 9 7 4 6 2 7 5 3 3 3 3 1 5 2 2 4 6 5 4 3 2 2 2 2 2 3 4 4 5 5 5 8 4 4 7 14 13 13 13 8 7 7 7 7 8 7 6 6 8
9 8 9 8 5 5 5 5 5 4 4 7 5 5 4 4 2 3 0 3 2 3 3 3 2 3 2 4 2 4 5 4 3 2 0 0 1 2 3 4 5 4 4 6 4 3 4 5 7 13 12 8 7 7 7 8 8 7 7 7 6 13
10 9 8 7 6 5 4 5 5 5 5 4 4 3 4 4 4 3 2 3 4 3 3 3 6 8 6 2 1 2 3 3 3 2 3 1 4 4 5 5 5 5 3 3 3 4 5 6 6 6 7 7 7 8 7 7 7 6 6 7 7 13
9 8 9 7 7 6 5 5 5 5 5 4 4 3 4 4 4 3 3 3 3 2 3 3 1 1 2 3 2 1 2 2 1 1 3 2 1 2 3 4 4 3 2 3 3 4 6 7 6 6 6 6 7 8 7 7 6 6 6 7 8 13
9 9 9 6 7 7 7 6 5 5 5 3 4 3 4 4 4 3 3 3 3 3 3 3 1 1 2 2 3 2 2 1 1 1 1 1 1 2 2 2 2 2 2 3 3 5 7 7 6 6 6 7 7 7 7 6 6 5 5 5 8 14
9 9 10 8 6 6 5 5 5 5 5 3 3 3 3 3 4 3 3 4 4 4 3 3 3 2 2 3 3 3 3 2 2 2 1 1 2 2 1 1 1 1 1 3 4 5 7 7 7 8 7 7 7 7 6 5 5 5 5 5 9 15
10 9 9 9 8 7 5 5 6 7 6 5 5 4 4 5 4 4 4 4 4 4 4 4 4 4 4 3 3 4 3 2 2 2 1 1 2 2 0 0 0 0 2 3 5 7 7 7 7 7 8 7 8 6 5 5 5 6 5 5 6 12
10 11 8 8 8 6 6 5 5 5 5 8 6 5 5 5 5 4 4 5 4 5 4 4 4 4 3 4 4 4 3 3 2 2 1 2 2 1 1 0 0 1 3 5 6 8 7 7 6 6 7 7 6 5 5 6 5 6 5 5 6 10
11 10 9 8 7 7 7 7 6 6 6 7 6 6 6 5 5 5 4 5 4 5 5 5 5 4 5 4 4 3 3 3 2 2 3 3 1 1 1 1 1 2 4 5 7 8 7 7 6 6 5 7 6 5 5 5 6 6 5 5 5 7
12 11 9 9 8 8 7 7 6 6 6 6 5 5 5 5 5 5 5 5 5 4 4 4 4 4 4 4 4 3 3 3 2 3 3 2 2 2 2 2 2 3 5 6 8 8 7 7 6 5 6 6 5 5 5 4 6 5 5 5 4 4
11 10 10 10 9 8 8 8 7 6 6 6 5 5 5 5 5 5 4 5 5 5 5 5 5 5 5 5 4 4 4 4 3 2 2 2 3 2 2 2 3 4 6 6 8 7 6 7 6 6 6 6 5 5 5 5 6 5 4 4 4 5
10 10 11 11 9 8 7 7 7 7 6 5 5 5 5 5 5 4 4 5 5 5 5 5 5 6 6 5 5 5 3 3 2 2 2 2 3 2 2 4 5 6 6 6 8 8 6 5 6 5 5 5 5 6 4 5 5 5 4 4 4 4
11 11 11 9 9 7 7 7 6 6 6 6 5 5 5 5 5 5 5 5 5 5 5 5 5 5 5 5 5 5 5 3 2 3 3 3 2 2 4 6 6 6 5 6 8 8 7 6 5 5 5 5 5 5 4 5 5 4 4 4 4 5
11 11 11 10 10 8 7 7 7 6 6 6 6 6 6 5 5 5 5 5 5 5 5 5 5 5 5 5 5 5 4 4 4 4 4 3 4 3 5 6 6 7 6 6 7 7 6 6 6 6 5 4 5 5 4 5 4 4 4 4 4 5
11 12 11 10 9 8 8 7 7 7 6 6 6 6 6 6 5 5 5 5 5 5 5 5 5 5 5 5 5 5 4 4 5 4 3 3 3 5 5 6 4 8 8 6 8 7 5 6 6 6 4 4 4 4 5 4 4 4 3 4 4 4
12 12 11 10 8 7 7 7 7 7 7 7 6 6 6 5 5 5 5 5 5 5 5 5 5 5 5 5 5 5 4 5 4 4 4 3 4 5 6 6 5 3 6 7 8 10 6 5 6 5 4 5 4 5 5 4 4 4 3 5 4 4
9 10 9 9 9 7 6 7 6 6 6 7 6 6 6 5 6 6 5 6 6 5 5 5 5 5 5 4 4 5 5 5 4 4 4 4 4 4 5 7 6 5 4 8 8 9 8 6 5 5 5 5 4 4 4 4 3 3 4 5 4 4
10 10 9 8 8 7 6 5 5 6 6 6 5 5 5 5 6 5 6 6 6 6 6 6 6 6 5 5 5 5 5 5 5 4 5 5 5 5 5 5 8 6 6 4 6 7 8 7 6 5 6 4 4 4 3 3 3 4 4 4 4 3
10 10 9 8 7 7 6 7 6 4 4 5 5 5 5 6 5 6 6 6 6 6 6 6 6 6 6 6 5 5 6 6 6 5 6 6 6 6 7 8 7 10 9 7 5 7 8 9 7 7 6 5 4 3 3 2 3 3 3 3 3 3
11 10 9 9 8 8 9 7 5 8 7 6 6 5 6 5 6 6 6 6 6 6 6 6 6 6 6 7 5 5 6 6 6 5 6 6 7 7 6 7 7 6 10 9 5 4 6 8 10 6 6 5 4 3 2 2 2 2 3 3 3 4
10 11 11 10 9 8 8 8 7 7 5 6 6 6 6 5 6 5 6 6 6 6 6 6 6 6 6 6 6 5 6 6 6 5 5 5 6 6 7 7 8 6 2 8 7 7 8 9 3 7 8 4 2 3 2 3 2 2 2 2 3 4
11 12 11 11 10 10 7 5 6 5 7 4 3 5 6 6 6 7 6 6 6 6 6 6 7 7 6 6 6 6 6 6 6 6 6 6 6 7 8 9 9 9 6 3 4 5 7 2 6 5 4 6 3 2 1 1 0 1 1 2 2 4
12 12 11 11 11 9 8 5 4 7 7 6 5 5 4 4 5 5 6 5 5 5 6 6 7 7 6 6 7 6 5 6 6 6 7 7 7 7 7 7 6 7 10 8 5 6 4 3 5 11 5 2 4 4 2 5 4 1 0 3 3 3
12 12 10 11 11 8 7 6 5 5 6 6 5 5 6 5 6 6 6 5 6 6 6 6 7 7 6 7 6 6 6 6 6 6 6 7 8 9 9 8 8 8 9 10 7 5 5 2 7 1 7 5 3 1 5 4 4 1 1 3 2 3
10 10 11 11 11 10 10 10 9 9 9 8 8 9 12 11 9 8 7 5 5 5 6 6 6 7 6 6 6 6 6 6 6 6 6 6 6 6 7 8 9 9 8 6 11 7 6 4 4 1 2 2 5 5 6 3 4 3 2 1 1 1
11 10 10 11 12 11 11 11 13 12 10 11 10 8 6 7 9 7 5 6 5 5 6 6 6 6 6 6 6 6 6 6 6 6 6 6 7 8 8 8 6 6 8 6 6 9 9 7 2 3 1 3 1 1 9 8 4 4 3 1 1 2
10 10 10 10 12 12 12 11 12 11 10 10 10 9 8 7 6 6 7 7 6 5 6 5 6 6 6 6 6 6 6 6 6 6 7 7 7 6 6 5 7 6 5 7 9 9 8 7 9 6 3 1 3 4 4 4 7 7 5 5 3 1
12 11 10 12 13 13 12 12 11 10 9 7 7 8 7 7 7 6 7 5 6 5 5 5 5 6 6 6 7 7 7 6 6 6 5 5 5 6 8 8 7 6 7 6 6 5 8 8 6 6 6 1 4 3 3 4 5 5 4 4 1 4
13 11 11 13 13 13 12 11 11 11 11 8 7 7 7 8 7 7 8 7 6 6 5 5 5 5 6 6 7 6 7 7 7 6 5 6 6 6 6 7 8 8 7 7 5 6 8 7 7 6 7 7 5 3 3 3 2 4 4 3 6 7
14 11 12 14 14 14 12 11 11 11 12 11 10 10 9 8 7 7 8 7 7 6 5 6 5 5 6 6 6 6 6 6 5 5 6 6 6 7 6 6 6 6 7 8 7 6 5 5 6 6 6 7 8 8 8 6 7 5 5 3 4 3
14 15 13 14 14 14 12 12 11 11 12 11 12 11 12 12 10 10 9 8 6 6 5 5 5 5 5 6 6 5 5 5 5 5 6 5 5 5 5 5 5 6 7 7 6 6 6 7 7 6 6 6 6 6 5 5 7 7 7 6 6 6
17 16 14 14 15 14 13 13 12 11 11 11 12 12 12 11 10 9 8 8 8 7 6 6 6 6 6 7 6 6 6 6 5 5 5 5 4 5 6 5 6 6 6 8 8 8 7 8 9 8 8 6 5 5 7 4 6 6 4 5 7 5
18 14 12 13 14 14 14 12 10 11 11 10 11 11 11 11 10 9 9 10 10 9 9 9 8 8 7 6 5 5 6 5 5 6 6 6 6 5 6 6 6 6 7 6 5 7 7 7 6 5 5 6 6 6 5 4 6 6 7 7 5 7
16 16 16 15 13 14 12 11 10 10 10 10 10 10 9 9 10 10 8 9 8 8 8 8 8 6 7 6 6 5 5 6 6 6 6 6 5 6 5 5 5 5 4 5 5 6 6 7 7 7 7 6 6 4 5 5 6 7 7 8 8 8
20 17 15 15 15 14 13 11 11 12 12 11 9 9 8 8 8 9 10 10 9 9 7 7 6 7 7 7 7 6 5 6 6 6 6 6 6 6 6 6 5 5 5 3 6 6 6 6 6 7 6 4 5 5 4 4 5 5 6 6 6 7
16 14 16 16 14 12 12 12 12 11 11 11 12 12 11 11 11 9 9 8 9 8 7 7 7 6 8 6 7 7 7 6 6 6 6 6 6 5 5 5 6 6 6 5 5 6 5 6 5 5 5 6 5 5 4 3 3 4 4 4 5 7
Wind_Direction
156 151 151 153 160 166 181 175 176 169 162 159 161 166 163 168 170 178 176 180 168 132 128 170 174 119 178 147 166 148 162 160 152 145 105 88 75 66 55 51 49 45 44 50 56 61 62 81 115 111 106 103 101 89 89 84 81 76 69 62 69 75
158 158 159 163 165 169 184 172 166 166 161 162 168 171 169 152 175 156 192 179 122 139 126 131 129 167 57 127 170 161 182 176 165 147 100 77 57 39 30 33 30 28 30 37 62 64 52 103 116 107 104 100 91 91 89 87 83 79 73 66 69 73
167 164 164 170 168 175 177 148 158 147 151 161 172 170 140 152 97 156 90 119 126 117 136 135 146 157 107 135 146 172 192 191 183 205 178 235 302 347 5 12 16 10 14 48 68 75 88 102 109 103 99 91 89 88 85 82 82 79 74 70 64 73
172 168 170 172 167 175 161 150 154 143 141 134 136 115 136 116 119 143 133 116 119 135 130 139 183 184 180 150 156 199 198 209 220 219 230 19 1 2 7 15 7 13 38 61 73 89 95 102 100 104 96 93 93 90 81 78 76 72 70 66 68 70
172 174 172 173 173 175 158 155 151 146 131 128 123 113 126 119 125 149 136 129 127 139 129 142 101 35 67 117 111 110 4 8 26 359 21 50 33 348 5 354 2 14 36 68 80 103 116 113 111 106 102 99 95 91 87 79 73 72 67 70 73 74
171 179 178 173 177 173 167 166 157 142 131 118 130 134 122 123 130 163 148 130 138 126 135 135 149 147 81 110 138 171 260 341 5 332 33 51 317 20 344 352 8 8 31 81 106 118 123 121 115 111 106 100 93 88 86 81 75 70 62 60 71 72
177 177 180 179 174 179 170 166 147 139 141 148 137 146 145 135 150 172 153 158 150 157 150 157 172 184 173 128 160 183 213 210 227 244 293 298 319 328 341 342 22 345 39 93 116 111 120 116 116 117 110 102 94 92 90 82 73 63 52 57 76 78
181 176 177 176 176 184 164 160 162 174 176 174 166 179 176 171 163 179 173 173 166 162 163 175 178 181 195 157 184 186 184 194 214 232 253 244 269 282 266 59 19 6 72 99 118 122 119 113 114 116 115 107 101 96 88 82 75 64 61 56 68 81
181 180 175 174 179 183 167 161 163 169 161 188 178 193 195 165 174 186 182 170 167 165 171 169 181 185 161 190 181 167 188 206 205 207 196 230 217 186 144 121 200 121 110 110 119 125 118 110 114 115 114 111 103 99 90 84 78 72 58 58 71 80
181 178 177 176 180 181 175 170 168 172 166 186 180 192 186 168 175 178 177 169 181 170 179 187 191 168 172 188 180 174 183 201 196 194 199 211 166 135 134 132 164 108 122 126 127 131 121 118 115 112 107 108 100 95 91 95 83 73 61 52 62 81
181 178 179 182 182 183 171 177 174 176 174 187 174 171 179 170 176 178 174 171 181 179 173 186 183 175 182 177 169 171 194 180 176 190 197 182 139 136 140 152 168 121 132 130 133 133 127 120 117 107 104 102 103 99 96 88 83 75 66 50 49 59
181 181 181 187 183 181 178 178 174 171 185 184 158 171 173 173 181 177 167 173 181 188 179 188 180 175 177 170 170 176 176 178 178 165 160 139 132 128 147 146 120 99 109 121 126 125 119 116 111 108 109 103 105 100 93 87 84 76 73 65 57 52
182 183 186 188 186 184 177 170 169 182 187 171 168 165 176 186 180 169 172 175 185 191 194 188 191 183 182 172 166 159 164 175 161 147 128 129 127 132 118 109 91 97 96 108 119 117 110 98 109 111 107 105 104 94 92 87 85 83 81 76 60 60
185 187 190 189 186 180 176 172 172 178 178 163 167 167 191 188 174 169 175 183 185 195 197 193 185 185 172 166 167 175 165 159 152 140 131 133 125 123 119 114 116 102 105 111 123 125 121 110 104 104 104 108 96 96 99 93 90 90 90 77 76 65
187 189 190 191 186 182 174 171 169 173 174 167 163 176 190 179 174 177 175 185 190 196 196 188 184 176 175 170 173 175 163 159 150 140 137 146 138 121 132 128 127 105 101 95 113 120 115 115 120 113 113 120 113 110 93 99 97 95 87 90 78 78
189 190 192 190 187 181 175 173 172 173 167 160 161 177 184 182 178 176 181 183 192 194 185 181 176 170 170 180 177 169 160 145 147 134 138 143 130 122 128 118 111 127 118 109 117 112 93 112 110 111 114 109 107 104 104 99 107 99 96 94 84 87
192 192 190 188 185 182 174 173 174 172 165 156 164 179 183 174 168 180 181 186 189 190 177 177 171 170 171 176 168 150 149 143 138 136 140 125 115 136 135 121 102 85 126 132 125 124 104 107 104 101 102 100 97 111 105 118 117 120 103 97 103 102
192 194 192 187 184 180 180 178 175 171 155 158 172 179 174 164 179 181 178 193 186 183 171 173 168 167 165 170 153 145 143 141 139 138 139 123 123 127 132 130 109 76 105 129 132 132 127 111 100 102 89 79 92 95 111 114 139 130 119 122 117 123
192 191 192 189 181 176 172 178 169 158 154 156 167 172 158 172 182 174 187 190 181 180 167 167 166 161 156 158 149 146 146 146 150 147 138 127 129 128 123 117 121 103 71 62 124 129 126 116 102 90 81 68 76 88 97 132 119 131 139 132 145 135
192 189 187 186 178 175 169 176 170 150 152 164 163 166 170 181 174 183 187 180 182 177 164 166 163 157 154 157 158 155 151 154 159 150 144 139 142 148 143 122 118 119 106 86 71 117 123 113 90 81 73 57 46 57 76 72 116 137 122 146 141 125
190 184 185 186 185 180 180 176 180 184 184 168 170 171 173 177 178 186 181 179 180 174 163 161 160 156 158 159 158 153 150 158 162 159 160 164 157 148 139 131 124 119 125 117 105 115 121 120 114 70 55 55 43 26 73 76 90 106 136 178 156 141
184 186 190 189 185 188 195 195 173 174 150 151 164 170 175 177 181 176 177 178 179 170 164 164 161 160 157 153 155 162 159 161 164 160 159 144 139 135 131 133 132 106 83 134 140 159 153 122 83 145 143 142 66 53 88 70 80 86 142 176 174 151
188 187 190 187 186 191 190 184 169 159 160 137 158 176 174 168 167 174 180 179 176 166 159 159 163 164 160 160 163 161 168 162 164 151 139 142 142 144 152 152 155 143 125 43 109 168 166 85 137 123 112 103 159 97 310 13 317 260 148 154 168 168
190 190 186 188 190 188 179 170 155 147 153 147 161 151 126 130 158 157 178 175 166 159 156 160 164 164 162 162 163 168 160 165 165 164 155 150 154 154 156 158 151 149 138 131 154 190 204 153 144 140 154 173 184 130 109 246 211 213 60 171 167 195
188 190 187 184 182 171 159 142 127 105 113 94 82 129 140 161 166 176 171 168 175 161 163 163 164 166 166 164 164 161 165 172 165 165 157 155 165 169 170 167 160 155 165 153 169 175 201 158 193 324 137 115 65 209 214 202 123 252 21 144 188 201
187 188 185 183 176 168 171 163 156 157 165 172 171 168 181 176 171 176 180 170 156 169 165 161 163 165 165 156 165 168 168 167 170 164 167 166 158 153 167 170 176 170 174 178 161 163 185 238 211 81 138 147 165 174 171 204 125 209 21 308 316 181
186 186 182 179 175 175 174 177 178 180 179 183 179 189 173 169 171 169 156 169 168 164 171 166 167 164 160 160 162 170 173 174 172 166 159 153 167 174 175 180 171 175 180 155 145 169 183 188 143 262 184 39 53 138 142 136 195 93 162 282 358 130
183 184 183 178 181 185 181 181 180 181 180 181 182 175 170 162 156 153 159 166 163 170 171 173 165 163 159 159 165 171 173 171 169 170 165 172 172 171 168 171 178 179 162 173 173 172 180 170 173 199 170 115 54 86 93 64 149 161 150 162 217 283
185 183 183 182 185 191 188 184 182 177 180 182 168 159 151 151 156 155 157 157 165 166 167 168 166 163 164 163 170 171 170 169 171 173 160 148 149 167 175 168 165 165 177 183 187 176 161 184 187 175 135 102 89 87 63 55 98 85 137 123 232 194
189 185 180 183 188 193 192 182 182 183 176 164 154 145 152 159 162 160 164 166 162 162 166 161 166 165 165 171 169 168 169 172 174 157 148 153 153 170 180 180 178 180 177 179 183 169 181 180 188 177 180 156 138 109 76 77 67 91 51 89 161 193
190 183 182 185 187 194 192 187 186 182 177 167 160 155 158 163 159 161 165 166 167 169 166 167 162 168 172 171 171 169 168 168 158 150 142 157 174 174 178 181 180 172 175 178 181 178 175 176 183 177 178 173 175 171 172 174 186 190 147 139 86 134
189 190 186 185 189 193 190 189 188 182 179 172 164 167 171 170 173 172 168 166 160 151 165 159 163 159 170 174 167 166 158 148 151 145 161 171 173 170 163 162 163 174 180 189 175 173 172 167 178 184 192 192 188 186 175 170 180 173 173 184 161 163
195 190 187 184 190 191 190 191 186 182 179 173 172 171 172 173 175 173 168 160 163 170 158 165 180 171 181 174 164 154 158 156 150 156 153 156 163 150 153 162 167 170 173 178 183 178 176 187 179 181 196 199 183 183 198 184 150 169 148 124 133 117
196 186 183 186 190 191 194 189 184 181 178 174 177 174 175 172 176 176 171 172 175 173 174 181 174 186 173 169 166 167 161 156 149 148 151 155 155 159 158 164 167 168 181 184 167 180 186 180 183 187 153 166 192 193 198 166 167 150 154 139 148 148
189 188 187 186 186 192 191 187 185 182 178 178 176 176 177 174 172 174 176 173 178 173 176 178 179 166 158 165 158 150 155 151 151 150 146 146 143 143 147 135 147 149 135 152 163 159 162 163 171 174 177 182 178 178 179 177 166 184 169 177 163 156
191 185 182 182 189 189 188 186 183 183 183 177 175 174 172 173 176 176 175 176 178 177 177 162 158 156 166 161 158 154 152 155 151 149 152 149 150 147 146 140 134 141 140 142 148 156 162 160 167 169 165 142 140 166 158 163 183 175 185 174 156 157
186 180 185 188 185 183 186 185 187 182 178 179 178 179 177 174 175 179 176 176 173 174 155 159 159 162 158 160 157 156 155 154 156 154 149 151 149 145 144 143 146 145 146 146 141 154 151 157 152 146 138 154 148 142 148 134 118 136 151 150 167 172